"Pseudo-MPEC" for C11ECF5

Created 2025 Feb 7 4:31:05 UT using Find_Orb

Click here for an explanation of pseudo-MPECs

 
 Astrometry: 
     C11ECF5* C2025 02 04.23586806 49 10.812+41 21 45.22   ~248H 22.35GVNEOCPV00
     C11ECF5  C2025 02 04.24710906 49 16.759+41 22 25.61   ~248H 22.57GVNEOCPV00
     C11ECF5  C2025 02 04.25272706 49 19.722+41 22 45.30   ~248H 22.49GVNEOCPV00
     C11ECF5 mC2025 02 04.32221906 49 57.200+41 26 21.00   ~248V       VNEOCPV00
     C11ECF5 mC2025 02 04.32278306 49 57.600+41 26 21.90   ~248V       VNEOCPV00
     C11ECF5 mC2025 02 04.32335106 49 57.850+41 26 24.10   ~248V 21.91GVNEOCPV00
     C11ECF5 mC2025 02 04.32391906 49 58.220+41 26 25.30   ~248V 22.50GVNEOCPV00
     C11ECF5 mC2025 02 05.24129407 00 07.682+42 14 48.80   ~256H 22.29GVNEOCPV00
     C11ECF5 mC2025 02 05.24226407 00 08.078+42 14 51.11   ~256H 22.39GVNEOCPV00
     C11ECF5 mC2025 02 05.24323407 00 08.435+42 14 53.63   ~256H 22.44GVNEOCPV00
     C11ECF5 mC2025 02 05.24420407 00 08.845+42 14 56.33   ~256H 22.04GVNEOCPV00

Station data:
(V00) Kitt Peak-Bok  (N31.963125 W111.600190)  US/Arizona.  Observers T. A.
   Pruyne, B. M. Africano, E. J. Christensen, G. A. Farneth, D. C. Fuls, A.
   R. Gibbs, A. D. Grauer, H. Gröller, J. A. Johnson, R. A. Kowalski, S. M.
   Larson, G. J. Leonard, D. Rankin, R. L. Seaman, F. C. Shelly, K. W.
   Wierzchoś. 2.25-m reflector + 4x4K mosaic CCD.

Orbital elements:  C11ECF5
   Perihelion 2024 Nov 3.54883 +/- 0.236 TT = 13:10:18 (JD 2460618.04883)
Epoch 2025 Feb  5.0 TT = JDT 2460711.5   Earth MOID: 0.0019   Ve: 0.0835
M  97.99719421 +/- 0.6              (J2000 ecliptic)             AutoNEOCP
n   1.04864594 +/- 0.00465          Peri.  249.95003 +/- 0.9
a   0.95951137 +/- 0.00284          Node   130.20689 +/- 0.10
e   0.1587094 +/- 0.00278           Incl.    4.57211 +/- 0.040
P   0.940/343.293d         H 29.43  G  0.15   U  9.1
q 0.80722780 +/- 0.00505    Q 1.11179494 +/- 0.000694
From 11 observations 2025 Feb. 4-5 (24.2 hr); mean residual 0".23
Residuals in arcseconds: 
250204 V00  .02-  .09-    250204 V00  .47+  .40-    250205 V00  .12+  .16-    
250204 V00  .06+  .03+    250204 V00  .28-  .23+    250205 V00  .20-  .04-    
250204 V00  .04-  .11+    250204 V00  .32+  .13-    250205 V00  .07+  .26+    
250204 V00  .50-  .26+    250205 V00  .01+  .05-    

Ephemerides (geocentric):
Date (UTC) HH   RA             Dec           delta  r     elong  mag " sig PA
---- --------  ------------   ------------  ------ ------ -----  --- --------
2025 02 07 05  07 15 48.883   +43 17 11.36  .02882 1.0089 141.1 23.3 87.3  71
2025 02 07 06  07 16 05.189   +43 18 09.16  .02895 1.0090 141.1 23.3 89.6  71
2025 02 07 07  07 16 21.377   +43 19 06.23  .02907 1.0091 141.1 23.3 92.0  71
2025 02 07 08  07 16 37.446   +43 20 02.58  .02920 1.0092 141.1 23.3 94.3  71
2025 02 07 09  07 16 53.398   +43 20 58.22  .02933 1.0093 141.1 23.3 96.7  71
2025 02 07 10  07 17 09.234   +43 21 53.16  .02945 1.0094 141.0 23.3   99  71
2025 02 07 11  07 17 24.957   +43 22 47.41  .02958 1.0095 141.0 23.3  101  71
2025 02 07 12  07 17 40.566   +43 23 40.98  .02970 1.0096 141.0 23.3  104  71
2025 02 07 13  07 17 56.064   +43 24 33.88  .02983 1.0097 141.0 23.3  106  71
2025 02 07 14  07 18 11.452   +43 25 26.11  .02995 1.0098 141.0 23.4  109  71
2025 02 07 15  07 18 26.730   +43 26 17.69  .03008 1.0099 141.0 23.4  111  71
2025 02 07 16  07 18 41.901   +43 27 08.63  .03021 1.0100 141.0 23.4  113  71
2025 02 07 17  07 18 56.966   +43 27 58.94  .03033 1.0101 141.0 23.4  116  71
2025 02 07 18  07 19 11.925   +43 28 48.61  .03046 1.0102 141.0 23.4  118  71
2025 02 07 19  07 19 26.780   +43 29 37.67  .03058 1.0103 141.0 23.4  121  71
2025 02 07 20  07 19 41.532   +43 30 26.11  .03071 1.0104 141.0 23.4  123  71
2025 02 07 21  07 19 56.182   +43 31 13.96  .03083 1.0105 141.0 23.4  125  71
2025 02 07 22  07 20 10.731   +43 32 01.21  .03096 1.0106 141.0 23.4  128  71
2025 02 07 23  07 20 25.182   +43 32 47.87  .03109 1.0107 141.0 23.4  130  72
2025 02 08 00  07 20 39.533   +43 33 33.96  .03121 1.0109 141.0 23.4  133  72
2025 02 08 01  07 20 53.788   +43 34 19.47  .03134 1.0110 141.0 23.5  135  72
2025 02 08 02  07 21 07.946   +43 35 04.42  .03146 1.0111 140.9 23.5  138  72
2025 02 08 03  07 21 22.009   +43 35 48.81  .03159 1.0112 140.9 23.5  140  72
2025 02 08 04  07 21 35.978   +43 36 32.66  .03172 1.0113 140.9 23.5  142  72
2025 02 08 05  07 21 49.854   +43 37 15.96  .03184 1.0114 140.9 23.5  145  72
2025 02 08 06  07 22 03.638   +43 37 58.72  .03197 1.0115 140.9 23.5  147  72
2025 02 08 07  07 22 17.331   +43 38 40.96  .03210 1.0116 140.9 23.5  150  72
2025 02 08 08  07 22 30.933   +43 39 22.67  .03222 1.0117 140.9 23.5  152  72
2025 02 08 09  07 22 44.447   +43 40 03.87  .03235 1.0118 140.9 23.5  155  72
2025 02 08 10  07 22 57.873   +43 40 44.56  .03247 1.0119 140.9 23.5  157  72
2025 02 08 11  07 23 11.211   +43 41 24.75  .03260 1.0120 140.9 23.5  160  72
2025 02 08 12  07 23 24.463   +43 42 04.44  .03273 1.0121 140.9 23.6  162  72
2025 02 08 13  07 23 37.630   +43 42 43.64  .03285 1.0122 140.8 23.6  164  72
2025 02 08 14  07 23 50.713   +43 43 22.36  .03298 1.0123 140.8 23.6  167  72
2025 02 08 15  07 24 03.712   +43 44 00.60  .03311 1.0124 140.8 23.6  169  72
2025 02 08 16  07 24 16.629   +43 44 38.37  .03323 1.0125 140.8 23.6  172  72
2025 02 08 17  07 24 29.464   +43 45 15.66  .03336 1.0126 140.8 23.6  174  72
2025 02 08 18  07 24 42.218   +43 45 52.50  .03349 1.0127 140.8 23.6  177  72
2025 02 08 19  07 24 54.892   +43 46 28.88  .03361 1.0128 140.8 23.6  179  73
2025 02 08 20  07 25 07.486   +43 47 04.82  .03374 1.0129 140.8 23.6  181  73
2025 02 08 21  07 25 20.003   +43 47 40.30  .03387 1.0130 140.8 23.6  184  73
2025 02 08 22  07 25 32.442   +43 48 15.35  .03399 1.0131 140.8 23.6  186  73
2025 02 08 23  07 25 44.805   +43 48 49.96  .03412 1.0132 140.7 23.6  189  73
2025 02 09 00  07 25 57.091   +43 49 24.15  .03425 1.0133 140.7 23.7  191  73
2025 02 09 01  07 26 09.302   +43 49 57.91  .03437 1.0134 140.7 23.7  193  73
2025 02 09 02  07 26 21.439   +43 50 31.25  .03450 1.0135 140.7 23.7  196  73
2025 02 09 03  07 26 33.503   +43 51 04.17  .03463 1.0136 140.7 23.7  198  73
2025 02 09 04  07 26 45.494   +43 51 36.69  .03475 1.0137 140.7 23.7  201  73